Terminal Aerodrome Forecast
Issued by NWS La Crosse, WI

Home | Current Version | Previous Version | Text Only | Print | Product List | Glossary On
Versions: 1 2 3 4 5 6 7 8 9 10 11 12 13 14 15 16 17 18 19 20 21 22 23 24 25 26 27 28 29 30 31 32 33 34 35 36 37 38 39 40 41 42 43 44
000
FTUS43 KARX 300530
TAFLSE
TAF
KLSE 300530Z 3006/0106 VRB03KT 6SM BR SCT010
      TEMPO 3006/3009 2SM BR BKN010
     FM300900 34004KT 2SM BR BKN008
      TEMPO 3009/3013 1/2SM FG BKN004
     FM301400 34007KT P6SM BKN010
     FM301700 34009KT P6SM SCT025
     FM010100 VRB03KT P6SM SCT250=

USA.gov is the U.S. government's official web portal to all federal, state and local government web resources and services.